Date String (YYYY-MM-DD hh:mm:ss) UTC,Instrument flags,Ambient pressure (hPa),Sample flow (lpm),Bypass flow (lpm),Sample temperature (°C),Ambient temperature (°C),ASC tube jacket temperature (°C),LED temperature (°C),Box temperature (°C),Sample RH (%),Span deviation,Mass concentration (μg/m³),Mass concentration (μg/m³),Mass concentration (μg/m³)
DateTimeUTC,F1_M11,P_M11,Q1_M11,Q2_M11,T1_M11,T2_M11,T3_M11,T4_M11,T5_M11,U1_M11,ZSPAN_M11,X0_M11,X2_M11,X1_M11
2021-10-08 16:00:00,,0827.9,5.01,0.00,30.0,27.6,00.0,39.2,31.6,19.0,0000.0,0009.76,0004.01,0003.05
2021-10-08 16:01:00,,0827.9,4.99,0.00,30.0,27.9,00.0,39.2,31.7,18.9,0000.0,0010.15,0004.00,0003.02
2021-10-08 16:02:00,,0828.0,5.01,0.00,30.0,28.2,00.0,39.2,31.7,18.9,0000.0,0010.64,0003.96,0002.98
2021-10-08 16:03:00,,0827.9,4.98,0.00,30.0,28.4,00.0,39.2,31.8,18.9,0000.0,0011.62,0003.89,0002.96
2021-10-08 16:04:00,,0827.8,5.00,0.00,30.0,28.5,00.0,39.2,31.8,19.0,0000.0,0012.57,0003.85,0002.93
2021-10-08 16:05:00,,0827.8,5.00,0.00,30.0,28.7,00.0,39.2,31.8,19.2,0000.0,0012.21,0003.81,0002.89
2021-10-08 16:06:00,,0827.9,5.00,0.00,30.0,28.8,00.0,39.2,31.9,19.1,0000.0,0011.85,0003.70,0002.85
2021-10-08 16:07:00,,0827.9,5.01,0.00,30.1,28.9,00.0,39.2,31.9,18.7,0000.0,0011.71,0003.66,0002.84
2021-10-08 16:08:00,,0827.8,5.00,0.00,30.1,29.1,00.0,39.2,31.9,18.7,0000.0,0011.68,0003.65,0002.86
2021-10-08 16:09:00,,0827.8,5.00,0.00,30.1,29.1,00.0,39.2,32.0,18.5,0000.0,0012.17,0003.67,0002.89
2021-10-08 16:10:00,,0827.9,5.00,0.00,30.2,29.2,00.0,39.2,32.0,18.7,0000.0,0012.47,0003.67,0002.90
2021-10-08 16:11:00,,0827.9,5.00,0.00,30.2,29.3,00.0,39.2,32.0,18.6,0000.0,0012.27,0003.71,0002.93
2021-10-08 16:12:00,,0827.9,5.01,0.00,30.2,29.3,00.0,39.2,32.1,18.6,0000.0,0012.02,0003.74,0002.94
2021-10-08 16:13:00,,0827.9,4.99,0.00,30.3,29.4,00.0,39.2,32.1,18.8,0000.0,0011.68,0003.74,0002.96
2021-10-08 16:14:00,,0827.8,5.00,0.00,30.3,29.5,00.0,39.3,32.1,18.6,0000.0,0011.25,0003.78,0002.97
2021-10-08 16:15:00,,0827.9,5.00,0.00,30.3,29.4,00.0,39.3,32.1,18.5,0000.0,0011.04,0003.79,0002.99
2021-10-08 16:16:00,,0827.8,5.00,0.00,30.3,27.8,00.0,39.3,31.8,18.3,0000.0,0011.19,0003.83,0003.02
2021-10-08 16:17:00,,0827.9,4.99,0.00,30.1,26.3,00.0,39.2,31.3,18.8,0000.0,0011.00,0003.87,0003.06
2021-10-08 16:18:00,,0827.8,5.01,0.00,30.0,26.5,00.0,39.2,31.3,19.1,0000.0,0011.03,0003.89,0003.08
2021-10-08 16:19:00,,0827.7,5.00,0.00,29.9,27.0,00.0,39.2,31.4,19.0,0000.0,0010.79,0003.93,0003.11
2021-10-08 16:20:00,,0827.7,4.99,0.00,29.9,27.4,00.0,39.1,31.5,19.0,0000.0,0010.45,0003.97,0003.13
2021-10-08 16:21:00,,0827.7,5.01,0.00,29.9,27.8,00.0,39.1,31.6,19.0,0000.0,0010.09,0004.00,0003.14
2021-10-08 16:22:00,,0827.7,5.00,0.00,29.9,28.1,00.0,39.1,31.7,18.9,0000.0,0010.00,0004.00,0003.15
2021-10-08 16:23:00,,0827.6,5.00,0.00,29.9,28.4,00.0,39.1,31.7,18.9,0000.0,0010.22,0004.02,0003.15
2021-10-08 16:24:00,,0827.6,5.01,0.00,30.0,28.6,00.0,39.1,31.8,18.6,0000.0,0010.85,0004.07,0003.16
2021-10-08 16:25:00,,0827.6,4.98,0.00,30.0,28.8,00.0,39.1,31.9,18.8,0000.0,0010.73,0004.10,0003.18
2021-10-08 16:26:00,,0827.6,5.00,0.00,30.0,28.9,00.0,39.1,31.9,18.5,0000.0,0010.02,0004.13,0003.19
2021-10-08 16:27:00,,0827.6,5.01,0.00,30.1,29.1,00.0,39.1,31.9,17.9,0000.0,0009.22,0004.10,0003.19
2021-10-08 16:28:00,,0827.6,5.01,0.00,30.1,29.2,00.0,39.1,32.0,18.3,0000.0,0009.49,0004.06,0003.20
2021-10-08 16:29:00,,0827.6,4.99,0.00,30.2,29.2,00.0,39.1,32.0,18.0,0000.0,0009.90,0004.10,0003.20
2021-10-08 16:30:00,,0827.5,5.01,0.00,30.2,29.2,00.0,39.2,32.1,18.6,0000.0,0010.13,0004.11,0003.21
2021-10-08 16:31:00,,0827.5,5.01,0.00,30.2,29.3,00.0,39.2,32.1,18.8,0000.0,0010.57,0004.07,0003.20
2021-10-08 16:32:00,,0827.5,5.01,0.00,30.3,29.3,00.0,39.2,32.1,18.4,0000.0,0010.79,0004.04,0003.20
2021-10-08 16:33:00,,0827.5,5.00,0.00,30.3,29.3,00.0,39.2,32.1,18.6,0000.0,0010.84,0004.02,0003.20
2021-10-08 16:34:00,,0827.5,5.00,0.00,30.2,28.0,00.0,39.2,31.8,18.2,0000.0,0010.54,0003.98,0003.21
2021-10-08 16:35:00,,0827.4,5.00,0.00,30.0,26.2,00.0,39.2,31.2,18.3,0000.0,0010.09,0003.98,0003.22
2021-10-08 16:36:00,,0827.4,5.00,0.00,29.9,26.3,00.0,39.2,31.2,18.4,0000.0,0009.95,0003.95,0003.22
2021-10-08 16:37:00,,0827.4,5.00,0.00,29.9,26.7,00.0,39.1,31.3,18.4,0000.0,0010.07,0003.93,0003.22
2021-10-08 16:38:00,,0827.4,5.00,0.00,29.8,27.2,00.0,39.0,31.4,18.6,0000.0,0010.08,0003.95,0003.24
2021-10-08 16:39:00,,0827.4,5.00,0.00,29.8,27.6,00.0,39.0,31.5,18.3,0000.0,0010.36,0004.01,0003.25
2021-10-08 16:40:00,,0827.4,5.00,0.00,29.8,27.9,00.0,39.0,31.6,18.4,0000.0,0010.33,0004.01,0003.26
2021-10-08 16:41:00,,0827.4,5.00,0.00,29.8,28.2,00.0,39.0,31.6,18.7,0000.0,0010.45,0004.02,0003.27
2021-10-08 16:42:00,,0827.4,4.99,0.00,29.9,28.4,00.0,39.0,31.6,18.6,0000.0,0011.09,0004.07,0003.28
2021-10-08 16:43:00,,0827.4,5.01,0.00,29.8,28.3,00.0,39.0,31.5,18.6,0000.0,0010.80,0004.10,0003.28
2021-10-08 16:44:00,,0827.5,4.99,0.00,29.7,28.3,00.0,39.0,31.3,19.1,0000.0,0010.81,0004.13,0003.28
2021-10-08 16:45:00,,0827.6,4.99,0.00,29.5,28.1,00.0,38.9,31.1,19.6,0000.0,0011.08,0004.18,0003.29
2021-10-08 16:46:00,,0827.6,5.01,0.00,29.4,27.9,00.0,38.9,31.0,19.7,0000.0,0011.88,0004.19,0003.29
2021-10-08 16:47:00,,0827.6,4.99,0.00,29.3,27.8,00.0,38.8,30.8,19.4,0000.0,0012.12,0004.18,0003.29
2021-10-08 16:48:00,,0827.7,4.99,0.00,29.1,27.6,00.0,38.7,30.6,19.5,0000.0,0012.18,0004.18,0003.29
2021-10-08 16:49:00,,0827.7,5.01,0.00,29.0,27.5,00.0,38.7,30.5,19.4,0000.0,0012.33,0004.19,0003.29
2021-10-08 16:50:00,,0827.8,5.00,0.00,28.9,27.4,00.0,38.6,30.4,19.4,0000.0,0012.41,0004.20,0003.30
2021-10-08 16:51:00,,0827.7,4.99,0.00,28.8,27.3,00.0,38.5,30.3,19.4,0000.0,0012.88,0004.26,0003.30
2021-10-08 16:52:00,,0827.7,5.01,0.00,28.7,27.2,00.0,38.4,30.1,19.4,0000.0,0012.89,0004.26,0003.31
2021-10-08 16:53:00,,0827.8,4.98,0.00,28.6,27.1,00.0,38.4,30.1,19.3,0000.0,0011.85,0004.25,0003.31
2021-10-08 16:54:00,,0827.8,5.00,0.00,28.5,27.2,00.0,38.3,30.1,19.4,0000.0,0011.93,0004.28,0003.32
2021-10-08 16:55:00,,0827.8,5.00,0.00,28.6,27.4,00.0,38.3,30.3,18.7,0000.0,0012.40,0004.28,0003.33
2021-10-08 16:56:00,,0827.9,5.01,0.00,28.7,27.6,00.0,38.2,30.4,18.2,0000.0,0013.29,0004.31,0003.33
2021-10-08 16:57:00,,0827.7,5.01,0.00,28.8,27.9,00.0,38.2,30.6,17.8,0000.0,0012.97,0004.32,0003.33
2021-10-08 16:58:00,,0827.7,5.00,0.00,28.9,28.1,00.0,38.2,30.8,17.4,0000.0,0013.24,0004.33,0003.33
2021-10-08 16:59:00,,0827.7,5.01,0.00,29.0,28.3,00.0,38.2,30.9,17.4,0000.0,0013.51,0004.36,0003.33
